DELTA 1 DEB, 2707

Orbit data source: Space-Track

DELTA 1 DEB, 2707 is space debris in SSO originally from a launch on Thu, 26 Jan 1967 UTC launched from the Air Force Western Test Range (AFWTR). Debris objects in space refer to the collection of defunct objects orbiting the Earth. Examples of debris include non-operational satellites, rocket bodies, and fragments generated from explosions, collisions, or faulty payload assembly.

Loading next visibility...
Identifier
2707, 1967-006D
Orbit
SSO
Country
Flag of USUS
Related business
Manufacturer
Unknown
Mission
Spacecraft
Bus & Motor
Unknown
Mass
Unknown
Launch date (UTC)
1967-01-26 (60 years ago)
Launch vehicle
Unknown
Launch site
Air Force Western Test Range (AFWTR)
Object type
Payload
Rocket body
Debris
Shape & HBR
Unknown shape, 0.1 m
Radar Cross Section
Medium (>0.1 m² and <1 m²)

Expand to show TLE details & history
Last TLE update: 2 days ago

TLE from 2 days ago
0 DELTA 1 DEB
1 02707U 67006D   26237.40849019 -.00000016  00000-0  14542-3 0  9997
2 02707 101.9016 211.5031 0148581 227.6921 287.6856 12.79410236781200
Epoch: 2026-08-25T09:48Z
TLE epoch observation values (Epoch: 2026-08-25T09:48:13.552Z)
Latitude
25.67989°
Longitude
-83.44237°
Altitude
1,313.382 km
Speed
7.218 km/s
True Right ascension
02h 29m 09s
True Declination
25° 33' 20"
Sunlit
Object was in daylight at epoch
Visualization orbit readout
Latitude
Unknown
Longitude
Unknown
Altitude
Unknown
Speed
Unknown
Apparent Right ascension
Unknown
Apparent Declination
Unknown
Sunlit
N/A
Visualization observer readout
Local Sidereal Time
14:56:31
Azimuth
Unknown
Elevation
Unknown
Doppler factor
Unknown
Orbital elements
Apogee altitude
1,456.056 km
Perigee altitude
1,226.662 km
Semi-major axis
7,719.496 km
Eccentricity
0.01486
Inclination
101.9016°
RAAN
211.5031°
Arg. of periapsis
227.6921°
True anomaly
286.05447°
Mean anomaly
287.6856°
Eccentric anomaly
286.87093°
Mean motion
3.20007 °/min
Orbital period
112.5 mins
BSTAR
0.00014542
Loading maneuver chart data...
Computing Atmospheric mass density...
Loading historical data...
Loading historical data...
Loading historical data...
Loading historical data...
Loading historical data...
Loading historical data...
Loading historical data...
Other satellites on launch #6 in the year 1967 (1967-01-26 UTC)

Documentation

Showing up to 5 results
|